DAL2782 KBOS-KRDU

Flight info

Callsign DAL2782
Flight time 1h 42m
Altitude 36000
Route SSOXS7 SSOXS Q167 ZJAAY TAQLE3
Aircraft A319/M-SDE3FGHIRWY/LB1

Departure

Time 2026-05-07 00:37
Airport Boston Logan International Airport (KBOS)

Arrival

Time 2026-05-07 02:20
Airport Raleigh-Durham International Airport (KRDU)
Time Latitude Longitude Altitude Speed Heading
2026-05-06 23:48 42.36332 -71.02121 26 ft 0 kts 17°
2026-05-07 00:11 42.36324 -71.02125 25 ft 4 kts 17°
2026-05-07 00:11 42.36303 -71.02133 25 ft 4 kts
2026-05-07 00:11 42.36285 -71.02129 29 ft 4 kts 287°
2026-05-07 00:11 42.36288 -71.02100 27 ft 3 kts 253°
2026-05-07 00:12 42.36289 -71.02096 29 ft 0 kts 253°
2026-05-07 00:16 42.36285 -71.02115 25 ft 5 kts 253°
2026-05-07 00:17 42.36272 -71.02171 25 ft 6 kts 253°
2026-05-07 00:17 42.36264 -71.02211 30 ft 3 kts 252°
2026-05-07 00:17 42.36237 -71.02248 28 ft 6 kts 208°
2026-05-07 00:17 42.36197 -71.02271 25 ft 7 kts 203°
2026-05-07 00:18 42.36134 -71.02306 28 ft 12 kts 202°
2026-05-07 00:18 42.36061 -71.02300 27 ft 9 kts 148°
2026-05-07 00:18 42.36028 -71.02248 28 ft 5 kts 122°
2026-05-07 00:18 42.36027 -71.02245 25 ft 5 kts 122°
2026-05-07 00:19 42.36019 -71.02227 28 ft 4 kts 122°
2026-05-07 00:19 42.35995 -71.02175 27 ft 9 kts 120°
2026-05-07 00:19 42.35959 -71.02091 25 ft 12 kts 121°
2026-05-07 00:19 42.35914 -71.01990 28 ft 11 kts 121°
2026-05-07 00:20 42.35880 -71.01914 28 ft 9 kts 121°
2026-05-07 00:20 42.35851 -71.01818 25 ft 13 kts 104°
2026-05-07 00:20 42.35834 -71.01705 27 ft 11 kts 101°
2026-05-07 00:20 42.35822 -71.01627 25 ft 7 kts 101°
2026-05-07 00:21 42.35825 -71.01586 27 ft 3 kts 67°
2026-05-07 00:21 42.35852 -71.01566 29 ft 6 kts 17°
2026-05-07 00:21 42.35898 -71.01546 27 ft 9 kts 19°
2026-05-07 00:21 42.35978 -71.01507 29 ft 15 kts 20°
2026-05-07 00:22 42.36094 -71.01452 29 ft 20 kts 16°
2026-05-07 00:22 42.36216 -71.01393 27 ft 18 kts 23°
2026-05-07 00:22 42.36321 -71.01339 26 ft 14 kts 19°
2026-05-07 00:22 42.36400 -71.01302 28 ft 10 kts 19°
2026-05-07 00:23 42.36452 -71.01277 30 ft 6 kts 19°
2026-05-07 00:23 42.36482 -71.01263 29 ft 5 kts 19°
2026-05-07 00:23 42.36523 -71.01244 29 ft 8 kts 19°
2026-05-07 00:23 42.36582 -71.01216 28 ft 10 kts 19°
2026-05-07 00:24 42.36650 -71.01184 28 ft 9 kts 19°
2026-05-07 00:24 42.36694 -71.01163 27 ft 5 kts 19°
2026-05-07 00:24 42.36718 -71.01151 28 ft 5 kts 20°
2026-05-07 00:24 42.36778 -71.01148 28 ft 11 kts 340°
2026-05-07 00:25 42.36830 -71.01202 29 ft 8 kts 314°
2026-05-07 00:25 42.36868 -71.01252 29 ft 9 kts 315°
2026-05-07 00:25 42.36920 -71.01322 28 ft 12 kts 315°
2026-05-07 00:25 42.36980 -71.01402 29 ft 11 kts 315°
2026-05-07 00:26 42.37025 -71.01461 25 ft 8 kts 315°
2026-05-07 00:26 42.37042 -71.01484 25 ft 8 kts 315°
2026-05-07 00:27 42.37058 -71.01507 29 ft 13 kts 315°
2026-05-07 00:27 42.37101 -71.01563 25 ft 8 kts 315°
2026-05-07 00:27 42.37117 -71.01584 29 ft 7 kts 315°
2026-05-07 00:27 42.37150 -71.01627 27 ft 7 kts 321°
2026-05-07 00:28 42.37195 -71.01619 29 ft 6 kts 44°
2026-05-07 00:28 42.37219 -71.01572 26 ft 7 kts 66°
2026-05-07 00:28 42.37208 -71.01498 30 ft 11 kts 129°
2026-05-07 00:28 42.37133 -71.01398 28 ft 19 kts 134°
2026-05-07 00:29 42.37035 -71.01263 28 ft 17 kts 135°
2026-05-07 00:29 42.37000 -71.01216 28 ft 0 kts 135°
2026-05-07 00:30 42.36994 -71.01209 28 ft 5 kts 135°
2026-05-07 00:30 42.36968 -71.01128 25 ft 12 kts 69°
2026-05-07 00:30 42.37027 -71.01084 25 ft 10 kts 22°
2026-05-07 00:30 42.37112 -71.01029 26 ft 17 kts 26°
2026-05-07 00:31 42.37231 -71.00953 25 ft 19 kts 25°
2026-05-07 00:31 42.37352 -71.00883 28 ft 19 kts 19°
2026-05-07 00:31 42.37472 -71.00825 27 ft 16 kts 19°
2026-05-07 00:31 42.37565 -71.00781 25 ft 13 kts 19°
2026-05-07 00:32 42.37651 -71.00739 29 ft 12 kts 20°
2026-05-07 00:32 42.37713 -71.00709 27 ft 8 kts 20°
2026-05-07 00:32 42.37759 -71.00686 25 ft 8 kts 20°
2026-05-07 00:32 42.37784 -71.00674 25 ft 0 kts 20°
2026-05-07 00:34 42.37799 -71.00667 29 ft 5 kts 20°
2026-05-07 00:34 42.37835 -71.00637 25 ft 5 kts 52°
2026-05-07 00:34 42.37839 -71.00594 25 ft 5 kts 101°
2026-05-07 00:35 42.37834 -71.00577 26 ft 0 kts 112°
2026-05-07 00:35 42.37829 -71.00560 27 ft 5 kts 112°
2026-05-07 00:35 42.37808 -71.00495 27 ft 7 kts 126°
2026-05-07 00:36 42.37774 -71.00482 29 ft 3 kts 182°
2026-05-07 00:36 42.37765 -71.00486 25 ft 0 kts 199°
2026-05-07 00:36 42.37674 -71.00530 26 ft 43 kts 200°
2026-05-07 00:37 42.37163 -71.00778 26 ft 110 kts 199°
2026-05-07 00:37 42.36260 -71.01216 89 ft 158 kts 200°
2026-05-07 00:37 42.35246 -71.01690 825 ft 154 kts 196°
2026-05-07 00:37 42.34162 -71.01630 1435 ft 166 kts 162°
2026-05-07 00:38 42.33213 -71.00555 1762 ft 193 kts 134°
2026-05-07 00:38 42.32335 -70.99060 2197 ft 212 kts 133°
2026-05-07 00:38 42.31479 -70.97383 2912 ft 223 kts 122°
2026-05-07 00:38 42.31180 -70.95244 3629 ft 252 kts 94°
2026-05-07 00:39 42.31493 -70.92759 4082 ft 281 kts 85°
2026-05-07 00:39 42.31885 -70.90104 4822 ft 293 kts 84°
2026-05-07 00:39 42.32294 -70.87367 5711 ft 301 kts 84°
2026-05-07 00:39 42.32709 -70.84571 6545 ft 307 kts 84°
2026-05-07 00:40 42.32952 -70.81698 7376 ft 309 kts 96°
2026-05-07 00:40 42.32716 -70.78849 8257 ft 302 kts 110°
2026-05-07 00:40 42.32023 -70.76203 9113 ft 297 kts 123°
2026-05-07 00:40 42.31134 -70.73670 9964 ft 301 kts 123°
2026-05-07 00:41 42.30112 -70.71184 10544 ft 308 kts 134°
2026-05-07 00:41 42.28647 -70.69010 10815 ft 320 kts 148°
2026-05-07 00:41 42.26758 -70.67326 11049 ft 332 kts 162°
2026-05-07 00:41 42.24549 -70.66200 11227 ft 349 kts 169°
2026-05-07 00:42 42.22174 -70.65136 11380 ft 370 kts 169°
2026-05-07 00:42 42.19701 -70.64016 11846 ft 379 kts 168°
2026-05-07 00:42 42.17174 -70.62941 12424 ft 381 kts 174°
2026-05-07 00:42 42.14600 -70.62412 13016 ft 377 kts 184°
2026-05-07 00:43 42.11996 -70.62522 13638 ft 373 kts 193°
2026-05-07 00:43 42.09445 -70.63287 14266 ft 370 kts 202°
2026-05-07 00:43 42.06997 -70.64381 14877 ft 373 kts 203°
2026-05-07 00:43 42.04526 -70.65481 15474 ft 376 kts 203°
2026-05-07 00:44 42.02032 -70.66584 16025 ft 379 kts 202°
2026-05-07 00:44 41.99517 -70.67690 16580 ft 382 kts 202°
2026-05-07 00:44 41.96982 -70.68803 17091 ft 385 kts 202°
2026-05-07 00:44 41.94423 -70.69926 17555 ft 389 kts 202°
2026-05-07 00:45 41.91841 -70.71059 18020 ft 392 kts 202°
2026-05-07 00:45 41.89239 -70.72196 18489 ft 395 kts 202°
2026-05-07 00:45 41.86616 -70.73340 18928 ft 398 kts 202°
2026-05-07 00:45 41.83992 -70.74558 19351 ft 399 kts 207°
2026-05-07 00:46 41.81523 -70.76235 19760 ft 399 kts 213°
2026-05-07 00:46 41.79100 -70.78067 20176 ft 401 kts 213°
2026-05-07 00:46 41.76656 -70.79908 20569 ft 405 kts 213°
2026-05-07 00:46 41.74193 -70.81758 20948 ft 407 kts 213°
2026-05-07 00:47 41.71712 -70.83619 21321 ft 410 kts 213°
2026-05-07 00:47 41.69219 -70.85487 21684 ft 412 kts 213°
2026-05-07 00:47 41.66739 -70.87340 22018 ft 415 kts 213°
2026-05-07 00:47 41.64184 -70.89254 22359 ft 417 kts 214°
2026-05-07 00:48 41.61644 -70.91154 22694 ft 420 kts 214°
2026-05-07 00:48 41.59123 -70.93038 23009 ft 422 kts 214°
2026-05-07 00:48 41.56621 -70.95089 23312 ft 421 kts 220°
2026-05-07 00:48 41.54402 -70.97612 23624 ft 418 kts 229°
2026-05-07 00:49 41.52532 -71.00566 23938 ft 416 kts 237°
2026-05-07 00:49 41.50925 -71.03784 24254 ft 417 kts 239°
2026-05-07 00:49 41.49317 -71.07017 24555 ft 419 kts 239°
2026-05-07 00:49 41.47697 -71.10254 24871 ft 420 kts 239°
2026-05-07 00:50 41.46071 -71.13485 25173 ft 421 kts 239°
2026-05-07 00:50 41.44442 -71.16719 25568 ft 419 kts 239°
2026-05-07 00:50 41.42825 -71.19935 26032 ft 416 kts 239°
2026-05-07 00:50 41.41221 -71.23126 26509 ft 413 kts 239°
2026-05-07 00:51 41.39627 -71.26290 26995 ft 410 kts 239°
2026-05-07 00:51 41.38042 -71.29426 27449 ft 407 kts 240°
2026-05-07 00:51 41.36471 -71.32537 27942 ft 403 kts 240°
2026-05-07 00:51 41.34913 -71.35628 28410 ft 400 kts 240°
2026-05-07 00:52 41.33368 -71.38685 28889 ft 397 kts 240°
2026-05-07 00:52 41.31830 -71.41723 29346 ft 394 kts 240°
2026-05-07 00:52 41.30799 -71.43761 29656 ft 392 kts 240°
2026-05-07 00:52 41.29281 -71.46760 30114 ft 389 kts 240°
2026-05-07 00:53 41.27776 -71.49731 30564 ft 386 kts 240°
2026-05-07 00:53 41.26276 -71.52680 31000 ft 384 kts 240°
2026-05-07 00:53 41.24783 -71.55613 31410 ft 383 kts 241°
2026-05-07 00:53 41.23295 -71.58539 31819 ft 381 kts 241°
2026-05-07 00:54 41.21815 -71.61445 32230 ft 379 kts 241°
2026-05-07 00:54 41.20342 -71.64340 32628 ft 377 kts 241°
2026-05-07 00:54 41.18897 -71.67181 33020 ft 376 kts 241°
2026-05-07 00:54 41.17417 -71.70084 33415 ft 374 kts 242°
2026-05-07 00:55 41.15959 -71.72933 33785 ft 373 kts 242°
2026-05-07 00:55 41.14507 -71.75772 34158 ft 371 kts 242°
2026-05-07 00:55 41.13065 -71.78603 34526 ft 370 kts 242°
2026-05-07 00:55 41.11633 -71.81429 34861 ft 369 kts 242°
2026-05-07 00:56 41.10223 -71.84209 35177 ft 368 kts 242°
2026-05-07 00:56 41.08774 -71.87061 35493 ft 367 kts 242°
2026-05-07 00:56 41.07367 -71.89823 35784 ft 367 kts 242°
2026-05-07 00:56 41.05938 -71.92629 35860 ft 369 kts 242°
2026-05-07 00:57 41.03147 -71.98388 35882 ft 369 kts 249°
2026-05-07 00:57 41.00987 -72.04532 35895 ft 367 kts 250°
2026-05-07 00:58 40.98828 -72.10635 35897 ft 365 kts 250°
2026-05-07 00:58 40.96681 -72.16710 35895 ft 364 kts 250°
2026-05-07 00:59 40.93456 -72.25818 35891 ft 364 kts 250°
2026-05-07 01:00 40.91000 -72.31709 35889 ft 374 kts 239°
2026-05-07 01:00 40.87334 -72.36721 35886 ft 381 kts 233°
2026-05-07 01:01 40.83557 -72.41642 35888 ft 381 kts 233°
2026-05-07 01:01 40.79753 -72.46531 35892 ft 386 kts 230°
2026-05-07 01:02 40.75589 -72.51051 35897 ft 387 kts 229°
2026-05-07 01:02 40.71428 -72.55564 35895 ft 388 kts 229°
2026-05-07 01:03 40.67279 -72.60097 35892 ft 387 kts 230°
2026-05-07 01:03 40.63235 -72.64744 35893 ft 385 kts 231°
2026-05-07 01:04 40.59225 -72.69420 35894 ft 385 kts 231°
2026-05-07 01:04 40.55199 -72.74068 35890 ft 385 kts 231°
2026-05-07 01:05 40.51158 -72.78690 35887 ft 385 kts 231°
2026-05-07 01:05 40.47109 -72.83305 35885 ft 385 kts 231°
2026-05-07 01:06 40.43069 -72.87921 35887 ft 385 kts 231°
2026-05-07 01:06 40.39035 -72.92531 35882 ft 385 kts 231°
2026-05-07 01:07 40.34997 -72.97133 35881 ft 385 kts 231°
2026-05-07 01:07 40.30949 -73.01726 35880 ft 386 kts 231°
2026-05-07 01:08 40.26883 -73.06322 35881 ft 386 kts 231°
2026-05-07 01:08 40.22817 -73.10917 35886 ft 386 kts 231°
2026-05-07 01:09 40.18755 -73.15510 35885 ft 386 kts 231°
2026-05-07 01:09 40.14691 -73.20094 35884 ft 386 kts 231°
2026-05-07 01:10 40.10632 -73.24663 35883 ft 385 kts 231°
2026-05-07 01:10 40.06590 -73.29214 35882 ft 385 kts 231°
2026-05-07 01:11 40.02533 -73.33773 35883 ft 385 kts 231°
2026-05-07 01:11 39.98463 -73.38316 35883 ft 385 kts 231°
2026-05-07 01:12 39.94390 -73.42856 35877 ft 385 kts 231°
2026-05-07 01:12 39.90311 -73.47402 35868 ft 387 kts 231°
2026-05-07 01:13 39.86221 -73.51956 35882 ft 387 kts 231°
2026-05-07 01:13 39.82133 -73.56506 35884 ft 387 kts 231°
2026-05-07 01:14 39.78053 -73.61054 35887 ft 386 kts 231°
2026-05-07 01:14 39.73984 -73.65593 35885 ft 385 kts 231°
2026-05-07 01:15 39.69905 -73.70115 35886 ft 385 kts 231°
2026-05-07 01:15 39.65830 -73.74628 35887 ft 385 kts 231°
2026-05-07 01:16 39.61751 -73.79136 35885 ft 385 kts 231°
2026-05-07 01:16 39.57665 -73.83641 35883 ft 386 kts 231°
2026-05-07 01:17 39.53578 -73.88143 35883 ft 386 kts 231°
2026-05-07 01:17 39.49488 -73.92646 35885 ft 386 kts 231°
2026-05-07 01:18 39.45400 -73.97144 35885 ft 386 kts 231°
2026-05-07 01:18 39.41301 -74.01646 35884 ft 386 kts 231°
2026-05-07 01:19 39.37198 -74.06139 35891 ft 387 kts 231°
2026-05-07 01:19 39.33090 -74.10625 35893 ft 387 kts 231°
2026-05-07 01:20 39.28999 -74.15080 35892 ft 388 kts 231°
2026-05-07 01:20 39.24843 -74.19609 35894 ft 389 kts 231°
2026-05-07 01:21 39.20702 -74.24105 35895 ft 389 kts 231°
2026-05-07 01:21 39.16585 -74.28566 35892 ft 390 kts 231°
2026-05-07 01:22 39.12434 -74.33072 35890 ft 391 kts 231°
2026-05-07 01:22 39.08269 -74.37586 35890 ft 392 kts 230°
2026-05-07 01:23 39.04084 -74.42104 35890 ft 393 kts 230°
2026-05-07 01:23 38.99894 -74.46624 35892 ft 394 kts 230°
2026-05-07 01:24 38.95685 -74.51145 35895 ft 395 kts 230°
2026-05-07 01:24 38.91520 -74.55726 35898 ft 393 kts 232°
2026-05-07 01:25 38.87505 -74.60479 35899 ft 393 kts 233°
2026-05-07 01:25 38.83501 -74.65259 35902 ft 394 kts 232°
2026-05-07 01:26 38.79461 -74.70016 35907 ft 395 kts 232°
2026-05-07 01:26 38.75398 -74.74753 35910 ft 395 kts 232°
2026-05-07 01:27 38.71189 -74.79348 35912 ft 399 kts 229°
2026-05-07 01:27 38.66829 -74.83783 35917 ft 401 kts 229°
2026-05-07 01:28 38.62467 -74.88226 35909 ft 401 kts 229°
2026-05-07 01:28 38.60286 -74.90481 35723 ft 406 kts 229°
2026-05-07 01:28 38.58102 -74.92754 35469 ft 404 kts 229°
2026-05-07 01:28 38.55927 -74.95015 35219 ft 402 kts 229°
2026-05-07 01:29 38.53757 -74.97271 34969 ft 403 kts 229°
2026-05-07 01:29 38.51597 -74.99545 34720 ft 402 kts 230°
2026-05-07 01:29 38.49479 -75.01868 34472 ft 401 kts 231°
2026-05-07 01:29 38.47387 -75.04224 34233 ft 401 kts 231°
2026-05-07 01:30 38.45258 -75.06549 33974 ft 405 kts 229°
2026-05-07 01:30 38.43039 -75.08784 33723 ft 408 kts 227°
2026-05-07 01:30 38.40754 -75.10955 33474 ft 411 kts 226°
2026-05-07 01:30 38.38432 -75.13096 33222 ft 412 kts 225°
2026-05-07 01:31 38.36138 -75.15203 32978 ft 412 kts 225°
2026-05-07 01:31 38.33786 -75.17378 32724 ft 412 kts 225°
2026-05-07 01:31 38.31478 -75.19538 32475 ft 412 kts 225°
2026-05-07 01:31 38.29170 -75.21719 32226 ft 413 kts 225°
2026-05-07 01:32 38.26863 -75.23907 31865 ft 414 kts 225°
2026-05-07 01:32 38.24582 -75.26070 31496 ft 415 kts 225°
2026-05-07 01:32 38.22266 -75.28267 31123 ft 416 kts 225°
2026-05-07 01:32 38.19913 -75.30494 30744 ft 416 kts 224°
2026-05-07 01:33 38.17588 -75.32692 30366 ft 417 kts 224°
2026-05-07 01:33 38.15261 -75.34890 29992 ft 417 kts 224°
2026-05-07 01:33 38.12927 -75.37092 29615 ft 419 kts 224°
2026-05-07 01:33 38.10587 -75.39300 29237 ft 420 kts 224°
2026-05-07 01:34 38.08236 -75.41513 28862 ft 422 kts 224°
2026-05-07 01:34 38.05875 -75.43733 28483 ft 422 kts 224°
2026-05-07 01:34 38.03677 -75.46144 28111 ft 414 kts 229°
2026-05-07 01:34 38.01676 -75.48729 27731 ft 410 kts 238°
2026-05-07 01:35 38.00370 -75.51832 27360 ft 402 kts 254°
2026-05-07 01:35 37.99661 -75.55264 26988 ft 403 kts 258°
2026-05-07 01:35 37.99009 -75.58778 26609 ft 406 kts 258°
2026-05-07 01:35 37.98376 -75.62237 26237 ft 410 kts 258°
2026-05-07 01:36 37.97943 -75.64618 25983 ft 411 kts 259°
2026-05-07 01:36 37.97085 -75.69308 25484 ft 413 kts 258°
2026-05-07 01:36 37.96436 -75.72863 25107 ft 416 kts 259°
2026-05-07 01:36 37.95994 -75.75278 24851 ft 416 kts 259°
2026-05-07 01:37 37.95336 -75.78860 24476 ft 418 kts 259°
2026-05-07 01:37 37.94678 -75.82452 24101 ft 420 kts 259°
2026-05-07 01:37 37.94016 -75.86057 23885 ft 421 kts 259°
2026-05-07 01:37 37.93351 -75.89671 23914 ft 422 kts 259°
2026-05-07 01:38 37.92685 -75.93294 23916 ft 422 kts 259°
2026-05-07 01:38 37.92029 -75.96852 23911 ft 412 kts 259°
2026-05-07 01:38 37.91374 -76.00420 23916 ft 419 kts 259°
2026-05-07 01:38 37.90717 -76.04007 23911 ft 412 kts 259°
2026-05-07 01:39 37.90085 -76.07434 23911 ft 387 kts 259°
2026-05-07 01:39 37.89486 -76.10656 23916 ft 365 kts 259°
2026-05-07 01:39 37.88915 -76.13701 23915 ft 346 kts 259°
2026-05-07 01:39 37.88370 -76.16588 23914 ft 329 kts 259°
2026-05-07 01:40 37.87846 -76.19338 23914 ft 313 kts 259°
2026-05-07 01:40 37.87343 -76.21963 23915 ft 304 kts 259°
2026-05-07 01:40 37.86846 -76.24554 23913 ft 302 kts 259°
2026-05-07 01:40 37.86350 -76.27133 23916 ft 301 kts 259°
2026-05-07 01:41 37.85864 -76.29671 23914 ft 301 kts 259°
2026-05-07 01:41 37.85372 -76.32244 23916 ft 301 kts 259°
2026-05-07 01:41 37.84881 -76.34817 23917 ft 301 kts 259°
2026-05-07 01:41 37.84391 -76.37390 23916 ft 301 kts 259°
2026-05-07 01:42 37.83902 -76.39967 23916 ft 301 kts 259°
2026-05-07 01:42 37.83416 -76.42546 23913 ft 302 kts 259°
2026-05-07 01:42 37.82928 -76.45124 23911 ft 301 kts 259°
2026-05-07 01:42 37.82440 -76.47702 23912 ft 302 kts 259°
2026-05-07 01:43 37.81952 -76.50282 23910 ft 302 kts 259°
2026-05-07 01:43 37.81465 -76.52863 23910 ft 302 kts 259°
2026-05-07 01:43 37.80979 -76.55442 23908 ft 302 kts 259°
2026-05-07 01:43 37.80493 -76.58023 23905 ft 302 kts 259°
2026-05-07 01:44 37.80009 -76.60607 23882 ft 301 kts 259°
2026-05-07 01:44 37.79423 -76.63137 23550 ft 302 kts 249°
2026-05-07 01:44 37.78197 -76.65330 23299 ft 314 kts 230°
2026-05-07 01:44 37.76452 -76.67061 23050 ft 320 kts 225°
2026-05-07 01:45 37.74656 -76.68728 22800 ft 321 kts 224°
2026-05-07 01:45 37.72853 -76.70379 22550 ft 320 kts 224°
2026-05-07 01:45 37.71049 -76.72021 22300 ft 319 kts 224°
2026-05-07 01:45 37.69250 -76.73660 22049 ft 318 kts 224°
2026-05-07 01:46 37.67459 -76.75297 21797 ft 317 kts 224°
2026-05-07 01:46 37.65672 -76.76930 21546 ft 316 kts 224°
2026-05-07 01:46 37.63898 -76.78557 21296 ft 315 kts 224°
2026-05-07 01:46 37.62126 -76.80185 21046 ft 315 kts 224°
2026-05-07 01:47 37.60359 -76.81806 20789 ft 314 kts 224°
2026-05-07 01:47 37.58598 -76.83420 20544 ft 313 kts 224°
2026-05-07 01:47 37.56840 -76.85036 20298 ft 312 kts 224°
2026-05-07 01:47 37.55085 -76.86641 20043 ft 311 kts 224°
2026-05-07 01:48 37.53338 -76.88239 19792 ft 310 kts 224°
2026-05-07 01:48 37.51595 -76.89833 19544 ft 309 kts 224°
2026-05-07 01:48 37.49856 -76.91423 19290 ft 309 kts 224°
2026-05-07 01:48 37.48119 -76.93007 19040 ft 307 kts 224°
2026-05-07 01:49 37.46390 -76.94582 18791 ft 307 kts 224°
2026-05-07 01:49 37.44666 -76.96156 18537 ft 306 kts 224°
2026-05-07 01:49 37.42948 -76.97725 18290 ft 305 kts 224°
2026-05-07 01:49 37.41233 -76.99289 18044 ft 305 kts 224°
2026-05-07 01:50 37.39519 -77.00851 17834 ft 303 kts 224°
2026-05-07 01:50 37.37817 -77.02401 17449 ft 301 kts 224°
2026-05-07 01:50 37.36123 -77.03941 17086 ft 300 kts 224°
2026-05-07 01:50 37.34441 -77.05473 16709 ft 298 kts 224°
2026-05-07 01:51 37.32762 -77.06999 16353 ft 297 kts 223°
2026-05-07 01:51 37.31093 -77.08515 16035 ft 295 kts 223°
2026-05-07 01:51 37.29431 -77.10022 15960 ft 295 kts 223°
2026-05-07 01:51 37.27766 -77.11533 15973 ft 295 kts 223°
2026-05-07 01:52 37.26099 -77.13045 15972 ft 296 kts 223°
2026-05-07 01:52 37.24432 -77.14559 15971 ft 296 kts 223°
2026-05-07 01:52 37.22759 -77.16074 15970 ft 297 kts 223°
2026-05-07 01:52 37.21085 -77.17591 15971 ft 297 kts 223°
2026-05-07 01:53 37.19409 -77.19106 15972 ft 297 kts 223°
2026-05-07 01:53 37.17732 -77.20622 15971 ft 297 kts 223°
2026-05-07 01:53 37.16053 -77.22137 15971 ft 298 kts 223°
2026-05-07 01:53 37.14372 -77.23651 15977 ft 298 kts 223°
2026-05-07 01:54 37.12690 -77.25167 15981 ft 298 kts 223°
2026-05-07 01:54 37.11010 -77.26684 15979 ft 298 kts 223°
2026-05-07 01:54 37.09331 -77.28199 15986 ft 298 kts 223°
2026-05-07 01:54 37.07649 -77.29718 15990 ft 298 kts 223°
2026-05-07 01:55 37.05967 -77.31236 15990 ft 298 kts 223°
2026-05-07 01:55 37.04282 -77.32756 15991 ft 298 kts 223°
2026-05-07 01:55 37.02596 -77.34272 15989 ft 298 kts 223°
2026-05-07 01:55 37.00910 -77.35782 15989 ft 298 kts 223°
2026-05-07 01:56 36.99223 -77.37294 15989 ft 299 kts 223°
2026-05-07 01:56 36.97534 -77.38809 15990 ft 299 kts 223°
2026-05-07 01:56 36.95842 -77.40329 15991 ft 299 kts 223°
2026-05-07 01:56 36.94155 -77.41847 15990 ft 299 kts 223°
2026-05-07 01:57 36.92466 -77.43365 15997 ft 299 kts 223°
2026-05-07 01:57 36.90777 -77.44876 15999 ft 299 kts 223°
2026-05-07 01:57 36.89086 -77.46386 15999 ft 299 kts 223°
2026-05-07 01:57 36.87396 -77.47901 16005 ft 299 kts 223°
2026-05-07 01:58 36.85703 -77.49419 16008 ft 299 kts 223°
2026-05-07 01:58 36.84010 -77.50934 16009 ft 299 kts 223°
2026-05-07 01:58 36.82318 -77.52446 16016 ft 299 kts 223°
2026-05-07 01:58 36.80620 -77.53962 16019 ft 302 kts 223°
2026-05-07 01:59 36.78921 -77.55486 16017 ft 300 kts 223°
2026-05-07 01:59 36.77221 -77.57001 16018 ft 300 kts 223°
2026-05-07 01:59 36.75520 -77.58514 16018 ft 300 kts 223°
2026-05-07 01:59 36.73825 -77.60024 16018 ft 300 kts 223°
2026-05-07 02:00 36.72124 -77.61539 16018 ft 300 kts 223°
2026-05-07 02:00 36.70420 -77.63049 16018 ft 301 kts 223°
2026-05-07 02:00 36.68715 -77.64563 16018 ft 301 kts 223°
2026-05-07 02:00 36.67015 -77.66078 16018 ft 301 kts 223°
2026-05-07 02:01 36.65309 -77.67594 16014 ft 301 kts 223°
2026-05-07 02:01 36.63614 -77.69095 15704 ft 299 kts 223°
2026-05-07 02:01 36.61944 -77.70574 15354 ft 298 kts 223°
2026-05-07 02:01 36.60238 -77.72084 15001 ft 296 kts 223°
2026-05-07 02:02 36.58562 -77.73569 14651 ft 295 kts 223°
2026-05-07 02:02 36.56893 -77.75051 14295 ft 294 kts 223°
2026-05-07 02:02 36.55254 -77.76507 13956 ft 293 kts 222°
2026-05-07 02:02 36.53579 -77.77995 13610 ft 292 kts 222°
2026-05-07 02:03 36.51930 -77.79458 13277 ft 290 kts 222°
2026-05-07 02:03 36.50288 -77.80905 12944 ft 289 kts 222°
2026-05-07 02:03 36.48674 -77.82321 12588 ft 287 kts 221°
2026-05-07 02:03 36.47027 -77.83771 12227 ft 286 kts 221°
2026-05-07 02:04 36.45408 -77.85198 11871 ft 284 kts 221°
2026-05-07 02:04 36.43807 -77.86614 11502 ft 282 kts 221°
2026-05-07 02:04 36.42208 -77.88029 11155 ft 281 kts 221°
2026-05-07 02:04 36.40626 -77.89428 10828 ft 278 kts 220°
2026-05-07 02:05 36.39054 -77.90811 10478 ft 276 kts 220°
2026-05-07 02:05 36.37497 -77.92180 10142 ft 273 kts 219°
2026-05-07 02:05 36.35951 -77.93540 10008 ft 271 kts 219°
2026-05-07 02:05 36.34415 -77.94893 10014 ft 271 kts 219°
2026-05-07 02:06 36.32876 -77.96247 10014 ft 271 kts 219°
2026-05-07 02:06 36.31359 -77.97580 10019 ft 271 kts 219°
2026-05-07 02:06 36.29820 -77.98934 10016 ft 271 kts 219°
2026-05-07 02:06 36.28285 -78.00284 10019 ft 271 kts 219°
2026-05-07 02:07 36.26747 -78.01633 10016 ft 270 kts 219°
2026-05-07 02:07 36.23805 -78.04502 10018 ft 267 kts 230°
2026-05-07 02:07 36.22671 -78.06313 10015 ft 266 kts 239°
2026-05-07 02:08 36.21824 -78.08339 10006 ft 265 kts 246°
2026-05-07 02:08 36.21064 -78.10418 10014 ft 265 kts 246°
2026-05-07 02:08 36.20315 -78.12500 10013 ft 265 kts 248°
2026-05-07 02:08 36.19601 -78.14604 10014 ft 265 kts 248°
2026-05-07 02:09 36.18901 -78.16719 10017 ft 265 kts 248°
2026-05-07 02:09 36.18203 -78.18833 10017 ft 265 kts 248°
2026-05-07 02:09 36.17502 -78.20949 9905 ft 267 kts 248°
2026-05-07 02:09 36.16790 -78.23086 9314 ft 268 kts 248°
2026-05-07 02:10 36.16085 -78.25192 9035 ft 262 kts 247°
2026-05-07 02:10 36.15390 -78.27260 8694 ft 259 kts 246°
2026-05-07 02:10 36.14847 -78.29372 8327 ft 258 kts 256°
2026-05-07 02:10 36.14473 -78.31520 7834 ft 254 kts 255°
2026-05-07 02:11 36.14098 -78.33636 7272 ft 251 kts 255°
2026-05-07 02:11 36.13714 -78.35759 6622 ft 252 kts 254°
2026-05-07 02:11 36.13337 -78.37846 6321 ft 246 kts 254°
2026-05-07 02:11 36.12963 -78.39914 6175 ft 246 kts 254°
2026-05-07 02:12 36.12582 -78.41964 6054 ft 245 kts 251°
2026-05-07 02:12 36.11854 -78.43843 5940 ft 242 kts 235°
2026-05-07 02:12 36.10919 -78.45572 5818 ft 242 kts 235°
2026-05-07 02:12 36.09983 -78.47303 5697 ft 242 kts 236°
2026-05-07 02:13 36.09050 -78.49031 5576 ft 242 kts 236°
2026-05-07 02:13 36.08129 -78.50730 5455 ft 228 kts 235°
2026-05-07 02:13 36.07275 -78.52311 5357 ft 214 kts 235°
2026-05-07 02:13 36.06471 -78.53801 5249 ft 202 kts 235°
2026-05-07 02:14 36.05713 -78.55199 5156 ft 192 kts 235°
2026-05-07 02:14 36.04958 -78.56567 5068 ft 192 kts 232°
2026-05-07 02:14 36.04096 -78.57815 4862 ft 189 kts 227°
2026-05-07 02:14 36.03196 -78.58983 4620 ft 187 kts 226°
2026-05-07 02:15 36.02292 -78.60118 4385 ft 185 kts 226°
2026-05-07 02:15 36.01394 -78.61237 4178 ft 180 kts 225°
2026-05-07 02:15 36.00521 -78.62321 3908 ft 176 kts 226°
2026-05-07 02:15 35.99672 -78.63375 3673 ft 170 kts 226°
2026-05-07 02:16 35.98840 -78.64409 3455 ft 170 kts 225°
2026-05-07 02:16 35.98005 -78.65446 3223 ft 170 kts 225°
2026-05-07 02:16 35.97172 -78.66479 3001 ft 170 kts 225°
2026-05-07 02:16 35.96337 -78.67513 2774 ft 172 kts 225°
2026-05-07 02:17 35.95487 -78.68567 2549 ft 174 kts 224°
2026-05-07 02:17 35.94605 -78.69659 2313 ft 194 kts 224°
2026-05-07 02:17 35.93650 -78.70842 2040 ft 188 kts 224°
2026-05-07 02:17 35.92764 -78.71940 1803 ft 174 kts 224°
2026-05-07 02:18 35.91944 -78.72957 1587 ft 159 kts 224°
2026-05-07 02:18 35.91201 -78.73875 1371 ft 143 kts 224°
2026-05-07 02:18 35.90517 -78.74721 1187 ft 136 kts 225°
2026-05-07 02:18 35.89853 -78.75540 1011 ft 134 kts 224°
2026-05-07 02:19 35.89200 -78.76358 782 ft 134 kts 226°
2026-05-07 02:19 35.88768 -78.76902 664 ft 135 kts 225°
2026-05-07 02:19 35.88086 -78.77730 523 ft 139 kts 224°
2026-05-07 02:19 35.87431 -78.78546 431 ft 120 kts 224°
2026-05-07 02:20 35.86965 -78.79112 426 ft 68 kts 225°
2026-05-07 02:20 35.86793 -78.79369 434 ft 24 kts 246°
2026-05-07 02:20 35.86766 -78.79501 436 ft 14 kts 286°
2026-05-07 02:20 35.86810 -78.79562 425 ft 7 kts 319°
2026-05-07 02:21 35.86847 -78.79606 430 ft 8 kts 315°
2026-05-07 02:21 35.86893 -78.79662 425 ft 10 kts 315°
2026-05-07 02:21 35.86954 -78.79739 416 ft 15 kts 315°
2026-05-07 02:21 35.87026 -78.79828 411 ft 13 kts 315°
2026-05-07 02:22 35.87086 -78.79901 408 ft 12 kts 316°
2026-05-07 02:22 35.87163 -78.79976 403 ft 16 kts 327°
2026-05-07 02:22 35.87247 -78.80036 399 ft 15 kts 334°
2026-05-07 02:22 35.87274 -78.80050 394 ft 0 kts 339°
2026-05-07 02:23 35.87291 -78.80057 393 ft 8 kts 345°
2026-05-07 02:23 35.87338 -78.80030 392 ft 8 kts 45°
2026-05-07 02:23 35.87378 -78.79981 391 ft 7 kts 45°
2026-05-07 02:23 35.87412 -78.79939 391 ft 8 kts 44°
2026-05-07 02:24 35.87462 -78.79881 391 ft 13 kts 40°
2026-05-07 02:24 35.87524 -78.79805 391 ft 12 kts 45°
2026-05-07 02:24 35.87584 -78.79732 391 ft 12 kts 44°
2026-05-07 02:24 35.87641 -78.79662 391 ft 11 kts 45°
2026-05-07 02:25 35.87690 -78.79601 391 ft 8 kts 47°
2026-05-07 02:25 35.87697 -78.79577 391 ft 1 kts 81°
2026-05-07 02:25 35.87693 -78.79560 391 ft 3 kts 116°
2026-05-07 02:25 35.87681 -78.79543 391 ft 2 kts 132°
2026-05-07 02:26 35.87675 -78.79537 391 ft 0 kts 135°
2026-05-07 02:26 35.87672 -78.79533 391 ft 1 kts 136°
2026-05-07 02:26 35.87669 -78.79529 391 ft 1 kts 135°
2026-05-07 02:26 35.87664 -78.79523 391 ft 0 kts 135°